Location: Fouquenies
(49.4624°N, 2.0492°E)
Time: 12:50:50
(UTC+00:00)

Spot 1 - Visible Passes

Search period start: 25 September 2023 00:00
Search period end: 05 October 2023 00:00
Orbit: 573 x 771 km, 98.7° (Epoch: 24 September)

Date Brightness Start Highest point End Pass type
(mag) Time Alt. Az. Time Alt. Az. Time Alt. Az.
25 Sep 5.7 20:42:20 10° N 20:44:16 26° N 20:44:16 26° N visible
26 Sep 6.1 19:39:00 10° NE 19:39:33 13° NE 19:39:33 13° NE visible
26 Sep 6.3 21:16:05 10° N 21:17:47 21° NNW 21:17:47 21° NNW visible
27 Sep 6.0 20:12:04 10° NNE 20:13:04 17° NNE 20:13:04 17° NNE visible
27 Sep 7.0 21:50:17 10° NNW 21:51:18 14° NNW 21:51:18 14° NNW visible
28 Sep 6.2 20:45:30 10° N 20:46:35 18° N 20:46:35 18° N visible
29 Sep 6.7 21:19:15 10° N 21:20:07 15° NNW 21:20:07 15° NNW visible
30 Sep 6.5 20:15:10 10° NNE 20:15:24 11° NNE 20:15:24 11° NNE visible
30 Sep 7.2 21:53:28 10° NNW 21:53:38 11° NNW 21:53:38 11° NNW visible
01 Oct 6.7 20:48:36 10° N 20:48:55 12° N 20:48:55 12° N visible
02 Oct 7.0 21:22:21 10° N 21:22:27 11° N 21:22:27 11° N visible
